TimeEST,TemperatureF,Dew PointF,Humidity,Sea Level PressureIn,VisibilityMPH,Wind Direction,Wind SpeedMPH,Gust SpeedMPH,PrecipitationIn,Events,Conditions,WindDirDegrees,DateUTC
12:52 AM,57.9,54.0,87,29.79,10.0,SW,15.0,26.5,N/A,,Clear,220,2011-11-15 05:52:00
1:52 AM,57.0,54.0,89,29.78,8.0,SW,12.7,23.0,N/A,,Clear,220,2011-11-15 06:52:00
2:52 AM,57.0,54.0,89,29.78,8.0,SW,12.7,23.0,N/A,,Mostly Cloudy,230,2011-11-15 07:52:00
4:52 AM,55.9,54.0,93,29.77,7.0,SW,11.5,18.4,N/A,,Mostly Cloudy,220,2011-11-15 09:52:00
5:40 AM,55.4,53.6,94,29.76,7.0,SW,10.4,18.4,N/A,,Overcast,220,2011-11-15 10:40:00
5:52 AM,55.9,54.0,93,29.76,7.0,SW,10.4,20.7,N/A,,Overcast,230,2011-11-15 10:52:00
6:52 AM,55.9,54.0,93,29.77,6.0,SW,9.2,20.7,N/A,,Mostly Cloudy,230,2011-11-15 11:52:00
7:00 AM,55.4,53.6,94,29.77,6.0,SW,9.2,18.4,N/A,,Scattered Clouds,230,2011-11-15 12:00:00
8:52 AM,59.0,54.0,83,29.79,7.0,SW,10.4,19.6,N/A,,Clear,230,2011-11-15 13:52:00
10:52 AM,62.1,55.0,78,29.80,10.0,WSW,9.2,17.3,N/A,,Clear,240,2011-11-15 15:52:00
11:52 AM,62.1,55.0,78,29.79,10.0,WSW,9.2,16.1,N/A,,Scattered Clouds,240,2011-11-15 16:52:00
12:52 PM,61.0,53.1,75,29.78,10.0,SW,9.2,24.2,N/A,,Overcast,230,2011-11-15 17:52:00
1:52 PM,60.1,53.1,78,29.79,10.0,WSW,8.1,-,N/A,,Overcast,240,2011-11-15 18:52:00
2:52 PM,59.0,53.1,81,29.84,10.0,WSW,6.9,-,N/A,,Overcast,240,2011-11-15 19:52:00
4:52 PM,55.9,53.1,90,29.88,10.0,SW,4.6,-,N/A,,Overcast,230,2011-11-15 21:52:00
5:52 PM,57.0,54.0,89,29.89,10.0,Calm,Calm,-,N/A,,Overcast,0,2011-11-15 22:52:00
6:52 PM,55.9,54.0,93,29.91,10.0,Calm,Calm,-,N/A,,Overcast,0,2011-11-15 23:52:00
7:52 PM,55.9,53.1,90,29.93,10.0,Calm,Calm,-,0.00,,Overcast,0,2011-11-16 00:52:00
8:52 PM,57.0,53.1,87,29.95,10.0,Calm,Calm,-,0.00,Rain,Light Rain,0,2011-11-16 01:52:00
9:52 PM,55.0,53.1,93,29.96,10.0,Calm,Calm,-,0.00,,Overcast,0,2011-11-16 02:52:00
10:52 PM,54.0,53.1,97,29.96,8.0,Calm,Calm,-,0.00,,Scattered Clouds,0,2011-11-16 03:52:00
11:52 PM,54.0,53.1,97,29.98,10.0,Calm,Calm,-,N/A,,Overcast,0,2011-11-16 04:52:00